EW4613 Weather Reports


time (UTC)temp
C
wind
direction
speed
KPH
gust
KPH
rain 1hr
cm
rain 24hr
cm
rain mn
cm
humidity
%
barometer
mb
20260505194502 16 275 0.0 4.8 0.00 0.00 0.00 78 1016.8
20260505193101 15 77 0.0 6.4 0.00 0.00 0.00 79 1016.9
20260505191607 15 98 3.2 9.7 0.00 0.00 0.00 80 1017.0
20260505190103 15 157 1.6 9.7 0.00 0.00 0.00 80 1017.0
20260505184551 14 167 0.0 11.3 0.00 0.00 0.00 81 1016.9
20260505183112 14 100 1.6 6.4 0.00 0.00 0.00 81 1016.9
20260505181549 14 100 3.2 9.7 0.00 0.00 0.00 81 1016.7
20260505180047 14 111 1.6 6.4 0.00 0.00 0.00 80 1016.7
20260505174544 14 112 3.2 9.7 0.00 0.00 0.00 80 1016.7
20260505173049 14 194 1.6 4.8 0.00 0.00 0.00 81 1016.6
20260505171545 13 197 1.6 3.2 0.00 0.00 0.00 81 1016.5
20260505170034 13 162 0.0 3.2 0.00 0.00 0.00 82 1016.5
20260505164532 13 207 0.0 3.2 0.00 0.00 0.00 83 1016.6
20260505163030 13 212 0.0 4.8 0.00 0.00 0.00 82 1016.5
20260505161528 13 127 1.6 3.2 0.00 0.00 0.00 83 1016.4
20260505153020 12 309 0.0 4.8 0.00 0.00 0.00 84 1016.5
20260505151529 12 283 4.8 9.7 0.00 0.00 0.00 84 1016.4
20260505124555 11 290 1.6 9.7 0.00 0.00 0.00 88 1015.5
20260505123055 11 263 3.2 9.7 0.00 0.00 0.00 88 1015.3
20260505121554 11 257 0.0 0.0 0.00 0.00 0.00 88 1015.4
20260505120110 11 271 0.0 0.0 0.00 0.00 0.00 88 1015.3
20260505114552 11 265 0.0 0.0 0.00 0.00 0.00 88 1015.2
20260505113052 11 264 0.0 4.8 0.00 0.00 0.00 88 1015.3
20260505111551 11 274 1.6 4.8 0.00 0.00 0.00 89 1015.4
20260505101549 11 254 1.6 9.7 0.00 0.00 0.00 89 1015.0
20260505100045 11 231 0.0 8.0 0.00 0.00 0.00 88 1015.0
20260505094543 11 261 1.6 6.4 0.00 0.00 0.00 89 1014.9
20260505093044 11 269 3.2 11.3 0.00 0.00 0.00 89 1014.9
20260505091540 11 271 4.8 14.5 0.00 0.00 0.00 88 1014.8
20260505090045 11 258 6.4 12.9 0.00 0.00 0.00 89 1014.8
20260505084538 11 269 1.6 4.8 0.00 0.00 0.00 89 1014.7
20260505083035 11 240 1.6 4.8 0.00 0.00 0.00 89 1014.8
20260505081539 11 215 0.0 4.8 0.00 0.00 0.00 91 1014.8
20260505080038 11 286 0.0 3.2 0.00 0.00 0.00 92 1014.8
20260505074526 10 182 0.0 3.2 0.00 0.00 0.00 92 1014.7
20260505073042 10 254 0.0 0.0 0.00 0.00 0.00 93 1014.6
20260505071523 10 202 0.0 0.0 0.00 0.00 0.00 92 1014.5
20260505070023 10 224 0.0 3.2 0.00 0.00 0.00 91 1014.5
20260505064535 11 316 0.0 1.6 0.00 0.00 0.00 90 1014.5
20260505063019 11 5 0.0 0.0 0.00 0.00 0.00 90 1014.6
20260505061530 11 322 1.6 3.2 0.00 0.00 0.00 90 1014.4
20260505060018 11 348 0.0 4.8 0.00 0.00 0.00 89 1014.5
20260505054520 11 346 4.8 8.0 0.00 0.00 0.00 89 1014.4
20260505053016 11 322 4.8 11.3 0.00 0.00 0.00 88 1014.3
20260505051517 11 313 4.8 14.5 0.00 0.00 0.00 88 1014.2
20260505041515 12 319 4.8 16.1 0.00 0.00 0.00 86 1013.5
20260505040013 12 298 8.0 19.3 0.00 0.00 0.00 86 1013.2
20260505034512 12 309 6.4 20.9 0.00 0.00 0.00 85 1013.1
20260505033012 13 305 6.4 17.7 0.00 0.00 0.00 84 1012.7
20260505031530 13 293 8.0 22.5 0.00 0.00 0.00 83 1012.5
20260505030013 13 323 8.0 25.7 0.00 0.00 0.00 82 1012.3
20260505024520 15 316 4.8 20.9 0.00 0.00 0.00 80 1012.1
20260505023012 15 297 8.0 20.9 0.00 0.00 0.00 78 1012.0
20260505021513 16 299 16.1 27.4 0.00 0.00 0.00 77 1011.8
20260505020022 16 312 12.9 20.9 0.00 0.00 0.00 76 1011.8
20260505014508 16 323 11.3 27.4 0.00 0.00 0.00 76 1011.8
20260505013007 17 316 9.7 27.4 0.00 0.00 0.00 74 1011.8
20260505011508 17 349 8.0 27.4 0.00 0.00 0.00 73 1011.8
20260505010006 18 331 11.3 19.3 0.00 0.00 0.00 71 1011.9
20260505004513 19 339 6.4 16.1 0.00 0.00 0.00 71 1011.9
20260505003005 19 349 4.8 16.1 0.00 0.00 0.00 69 1011.9
20260505001504 20 350 8.0 17.7 0.00 0.00 0.00 70 1011.9
20260505000007 20 18 6.4 12.9 0.00 0.00 0.00 69 1011.9
20260504234504 20 338 6.4 14.5 0.00 0.00 0.00 68 1011.8
20260504233003 21 312 4.8 11.3 0.00 0.00 0.00 67 1011.8
20260504231502 21 320 4.8 14.5 0.00 0.00 0.00 67 1011.8
20260504230000 21 307 4.8 12.9 0.00 0.00 0.00 67 1012.0
20260504224501 21 315 4.8 12.9 0.00 0.00 0.00 65 1012.2
20260504223105 21 350 4.8 11.3 0.00 0.00 0.00 66 1012.4
20260504221605 21 308 0.0 11.3 0.00 0.00 0.00 70 1012.6
20260504220059 21 155 1.6 6.4 0.00 0.00 0.00 69 1012.7
20260504214557 20 120 1.6 8.0 0.00 0.00 0.00 69 1012.8
20260504213053 20 171 1.6 6.4 0.00 0.00 0.00 73 1012.9
20260504211549 20 160 3.2 12.9 0.00 0.00 0.00 71 1013.0
20260504210051 19 146 3.2 8.0 0.00 0.00 0.00 72 1013.2
20260504204546 18 139 1.6 14.5 0.00 0.00 0.00 73 1013.4
20260504203052 18 78 1.6 6.4 0.00 0.00 0.00 73 1013.4
20260504201543 18 328 0.0 8.0 0.00 0.00 0.00 75 1013.6
20260504200040 18 333 1.6 4.8 0.00 0.00 0.00 73 1013.6